Victoria, TX

1:36 AM CST on December 16, 2019 (GMT -0600)
Victoria Regional

Weather History for KVCT - October, 2019

Change the Weather History Date:

Sunday, October 27, 2019

  Actual Average Record
Temperature  
Mean Temperature 64 °F 69 °F  
Max Temperature 82 °F 81 °F 99 °F (1926)
Min Temperature 45 °F 58 °F 37 °F (1957)
Degree Days  
Heating Degree Days 2 1  
Month to date heating degree days 16 12  
Since 1 July heating degree days 16 13  
Cooling Degree Days 0 6  
Month to date cooling degree days 284 223  
Year to date cooling degree days 3549 3021  
Growing Degree Days 14 (Base 50)    
Moisture  
Dew Point 51 °F    
Average Humidity 69    
Maximum Humidity 93    
Minimum Humidity 30    
Precipitation  
Precipitation 0.00 in 0.14 in 0.87 in (1970)
Month to date precipitation 2.32 4.13  
Year to date precipitation 21.68 35.16  
Snow  
Snow 0.00 in 0.00 in 0.00 in (2002)
Month to date snowfall 0.0 0.0  
Since 1 July snowfall 0.0 0.0  
Since 1 September snowfall 0.0 0.0  
Snow Depth 0.00 in    
Sea Level Pressure  
Sea Level Pressure 29.95 in    
Wind  
Wind Speed 5 mph ()    
Max Wind Speed 16 mph    
Max Gust Speed 20 mph    
Visibility 10.0 miles    
Events      
T = Trace of Precipitation, MM = Missing Value Source: Averaged Metar Reports

Daily Weather History Graph

Daily Weather History Graph

Search for Another Location

Airport or City:

Astronomy

Oct. 27, 2019 Rise Set
Actual Time 7:36 AM CDT 6:46 PM CDT
Civil Twilight 7:12 AM CDT 7:10 PM CDT
Nautical Twilight 6:44 AM CDT 7:38 PM CDT
Astronomical Twilight 6:16 AM CDT 8:05 PM CDT
Moon 6:54 AM CDT (10/27) 6:51 PM CDT (10/27)
Length of Visible Light 11h 58m
Length of Day
11h 10m
Waning Crescent, 0% of the Moon is Illuminated
Oct 27
Waning Crescent
Oct 27
New
Nov 4
First Quarter
Nov 12
Full
Nov 19
Last Quarter

Hourly Weather History & Observations

Time (CDT) Temp. Windchill Dew Point Humidity Pressure Visibility Wind Dir Wind Speed Gust Speed Precip Events Conditions
12:51 AM 51.1 °F - 45.0 °F 80% 29.93 in 10.0 mi SSW 5.8 mph - N/A   Clear
1:51 AM 52.0 °F - 46.9 °F 83% 29.92 in 10.0 mi SE 4.6 mph - N/A   Clear
2:51 AM 51.1 °F - 46.9 °F 86% 29.92 in 10.0 mi SE 4.6 mph - N/A   Clear
3:51 AM 50.0 °F - 45.0 °F 83% 29.92 in 10.0 mi SSE 5.8 mph - N/A   Clear
4:51 AM 51.1 °F - 45.0 °F 80% 29.93 in 10.0 mi SSE 4.6 mph - N/A   Clear
5:51 AM 48.0 °F - 45.0 °F 89% 29.94 in 10.0 mi ESE 3.5 mph - N/A   Clear
6:51 AM 46.9 °F - 44.1 °F 90% 29.95 in 10.0 mi Calm Calm - N/A   Clear
7:51 AM 46.0 °F 43.9 °F 43.0 °F 89% 29.96 in 10.0 mi North 4.6 mph - N/A   Clear
8:51 AM 54.0 °F - 51.1 °F 90% 29.98 in 10.0 mi Calm Calm - N/A   Clear
9:51 AM 62.1 °F - 55.0 °F 78% 30.01 in 10.0 mi WNW 4.6 mph - N/A   Clear
10:51 AM 69.1 °F - 50.0 °F 51% 30.01 in 10.0 mi West 5.8 mph - N/A   Clear
11:51 AM 75.0 °F - 50.0 °F 41% 30.00 in 10.0 mi Variable 3.5 mph - N/A   Clear
12:51 PM 77.0 °F - 48.0 °F 36% 29.98 in 10.0 mi SSE 4.6 mph - N/A   Clear
1:51 PM 79.0 °F - 48.9 °F 35% 29.94 in 10.0 mi Variable 6.9 mph - N/A   Clear
2:51 PM 81.0 °F - 46.9 °F 30% 29.92 in 10.0 mi SE 12.7 mph - N/A   Clear
3:51 PM 81.0 °F - 46.9 °F 30% 29.91 in 10.0 mi SSE 10.4 mph - N/A   Clear
4:29 PM 80.1 °F - 54.0 °F 40% 29.91 in 10.0 mi SE 12.7 mph - N/A   Clear
4:51 PM 79.0 °F - 55.0 °F 44% 29.91 in 10.0 mi ESE 15.0 mph - N/A   Clear
5:51 PM 75.0 °F - 57.0 °F 53% 29.91 in 10.0 mi ESE 12.7 mph - N/A   Clear
6:51 PM 70.0 °F - 57.9 °F 65% 29.93 in 10.0 mi SE 10.4 mph - N/A   Clear
7:51 PM 64.0 °F - 57.9 °F 80% 29.94 in 10.0 mi SE 6.9 mph - N/A   Clear
8:51 PM 64.0 °F - 59.0 °F 84% 29.95 in 10.0 mi East 6.9 mph - N/A   Clear
9:51 PM 63.0 °F - 57.9 °F 84% 29.95 in 10.0 mi ESE 5.8 mph - N/A   Clear
9:58 PM 62.1 °F - 57.9 °F 86% 29.96 in 10.0 mi ESE 6.9 mph - N/A   Clear
10:51 PM 61.0 °F - 57.9 °F 90% 29.95 in 10.0 mi ESE 5.8 mph - N/A   Clear
11:51 PM 61.0 °F - 57.9 °F 90% 29.95 in 10.0 mi ESE 4.6 mph - N/A   Clear